Weather History for Pecos, TX

Change the Weather History Date:

Thursday, March 22, 2012

  Actual Average Record
Temperature  
Mean Temperature 57 °F -  
Max Temperature 82 °F 77 °F 92 °F (1984)
Min Temperature 32 °F 40 °F 19 °F (1914)
Degree Days  
Heating Degree Days 8    
Growing Degree Days 7 (Base 50)    
Moisture  
Dew Point 19 °F    
Average Humidity 28    
Maximum Humidity 57    
Minimum Humidity 10    
Precipitation  
Precipitation 0.00 in - - ()
Sea Level Pressure  
Sea Level Pressure 29.89 in    
Wind  
Wind Speed 6 mph (WSW)    
Max Wind Speed 21 mph    
Max Gust Speed 26 mph    
Visibility 10 miles    
Events      
Averages and records for this station are not official NWS values.
T = Trace of Precipitation, MM = Missing Value Source: NWS Daily Summary

Daily Weather History Graph

Daily Weather History Graph

Search for Another Location

Airport:

Trip Planner

Search our weather history database for the weather conditions in past years. The results will help you decide how hot, cold, wet, or windy it might be!

Date:

Astronomy

Mar. 22, 2012 Rise Set
Actual Time 7:54 AM CDT 8:07 PM CDT
Civil Twilight 7:30 AM CDT 8:31 PM CDT
Nautical Twilight 7:02 AM CDT 8:59 PM CDT
Astronomical Twilight 6:33 AM CDT 9:28 PM CDT
Moon 7:38 AM CDT (3/22) 8:28 PM CDT (3/22)
Length of Visible Light 13h 01m
Length of Day
12h 12m
Waxing Crescent, 0% of the Moon is Illuminated
Mar 22
Waxing Crescent
Mar 30
First Quarter
Apr 6
Full
Apr 13
Last Quarter
Apr 21
New

Hourly Weather History & Observations

Time (CDT) Temp. Windchill Dew Point Humidity Pressure Visibility Wind Dir Wind Speed Gust Speed Precip Events Conditions
12:15 AM 46.8 °F - 24.4 °F 42% 29.95 in 10.0 mi SSW 5.8 mph - N/A   Clear
12:35 AM 44.8 °F 41.0 °F 23.4 °F 43% 29.95 in 10.0 mi South 6.9 mph - N/A   Clear
1:15 AM 43.0 °F 38.8 °F 23.0 °F 45% 29.93 in 10.0 mi SSW 6.9 mph - N/A   Clear
1:35 AM 42.6 °F 39.0 °F 23.0 °F 46% 29.93 in 10.0 mi WSW 5.8 mph - N/A   Clear
1:55 AM 41.9 °F 40.0 °F 22.5 °F 46% 29.93 in 10.0 mi West 3.5 mph - N/A   Clear
2:15 AM 40.8 °F - 22.5 °F 48% 29.93 in 10.0 mi Calm Calm - N/A   Clear
2:35 AM 41.2 °F - 23.4 °F 49% 29.93 in 10.0 mi Calm Calm - N/A   Clear
2:55 AM 41.2 °F 39.2 °F 23.5 °F 50% 29.92 in 10.0 mi SW 3.5 mph - N/A   Clear
3:15 AM 39.6 °F 37.4 °F 22.1 °F 50% 29.92 in 10.0 mi SW 3.5 mph - N/A   Clear
3:35 AM 38.3 °F 34.8 °F 21.4 °F 51% 29.91 in 10.0 mi WSW 4.6 mph - N/A   Clear
3:55 AM 37.6 °F 33.1 °F 20.3 °F 50% 29.91 in 10.0 mi WSW 5.8 mph - N/A   Clear
4:15 AM 36.7 °F 32.0 °F 18.7 °F 48% 29.90 in 10.0 mi WNW 5.8 mph - N/A   Clear
4:35 AM 35.6 °F 31.7 °F 20.3 °F 54% 29.89 in 10.0 mi NW 4.6 mph - N/A   Clear
4:55 AM 34.3 °F 31.4 °F 19.8 °F 55% 29.89 in 10.0 mi WSW 3.5 mph - N/A   Clear
5:15 AM 33.4 °F 27.3 °F 19.6 °F 57% 29.88 in 10.0 mi WSW 6.9 mph - N/A   Clear
5:35 AM 33.3 °F 27.1 °F 19.4 °F 57% 29.88 in 10.0 mi SW 6.9 mph - N/A   Clear
5:55 AM 34.2 °F 27.5 °F 17.6 °F 51% 29.89 in 10.0 mi SW 8.1 mph - N/A   Clear
6:15 AM 35.4 °F 30.5 °F 15.4 °F 44% 29.89 in 10.0 mi SW 5.8 mph - N/A   Clear
6:35 AM 35.1 °F - 14.4 °F 43% 29.88 in 10.0 mi Calm Calm - N/A   Clear
7:15 AM 33.1 °F - 14.0 °F 46% 29.89 in 10.0 mi Calm Calm - N/A   Clear
7:35 AM 32.9 °F - 13.5 °F 45% 29.90 in 10.0 mi Calm Calm - N/A   Clear
7:55 AM 32.4 °F - 13.1 °F 45% 29.90 in 10.0 mi Calm Calm - N/A   Clear
8:15 AM 32.7 °F 29.6 °F 13.5 °F 45% 29.91 in 10.0 mi WSW 3.5 mph - N/A   Clear
8:35 AM 34.0 °F - 14.5 °F 45% 29.91 in 10.0 mi Calm Calm - N/A   Clear
8:55 AM 37.4 °F - 14.7 °F 40% 29.91 in 10.0 mi Calm Calm - N/A   Clear
9:15 AM 41.2 °F - 14.4 °F 34% 29.91 in 10.0 mi Calm Calm - N/A   Clear
9:35 AM 45.0 °F - 15.6 °F 31% 29.91 in 10.0 mi Calm Calm - N/A   Clear
9:55 AM 50.0 °F - 16.3 °F 26% 29.91 in 10.0 mi Calm Calm - N/A   Clear
10:15 AM 54.7 °F - 16.0 °F 22% 29.91 in 7.0 mi Calm Calm - N/A   Clear
10:35 AM 57.9 °F - 16.7 °F 20% 29.91 in 10.0 mi West 3.5 mph - N/A   Clear
10:55 AM 62.1 °F - 16.9 °F 17% 29.91 in 10.0 mi WSW 4.6 mph - N/A   Clear
11:15 AM 67.5 °F - 17.4 °F 15% 29.91 in 10.0 mi WSW 11.5 mph - N/A   Clear
11:35 AM 71.1 °F - 19.2 °F 14% 29.91 in 10.0 mi West 20.7 mph 24.2 mph N/A   Clear
11:55 AM 73.0 °F - 20.1 °F 14% 29.91 in 10.0 mi West 13.8 mph - N/A   Clear
12:15 PM 73.9 °F - 20.3 °F 13% 29.91 in 10.0 mi West 16.1 mph 24.2 mph N/A   Clear
12:35 PM 74.5 °F - 20.5 °F 13% 29.91 in 10.0 mi NW 12.7 mph 17.3 mph N/A   Clear
12:55 PM 75.4 °F - 20.8 °F 13% 29.91 in 10.0 mi West 13.8 mph 17.3 mph N/A   Clear
1:15 PM 75.9 °F - 21.0 °F 13% 29.90 in 10.0 mi West 9.2 mph - N/A   Clear
1:35 PM 76.8 °F - 21.4 °F 13% 29.90 in 10.0 mi WNW 10.4 mph 16.1 mph N/A   Clear
1:55 PM 77.5 °F - 21.6 °F 12% 29.89 in 10.0 mi West 8.1 mph - N/A   Clear
2:15 PM 78.6 °F - 21.7 °F 12% 29.88 in 10.0 mi WSW 8.1 mph - N/A   Clear
2:35 PM 79.7 °F - 22.1 °F 12% 29.86 in 10.0 mi West 11.5 mph - N/A   Clear
2:55 PM 80.6 °F - 22.1 °F 11% 29.86 in 10.0 mi West 15.0 mph 26.5 mph N/A   Clear
3:15 PM 81.0 °F - 21.9 °F 11% 29.85 in 10.0 mi West 8.1 mph 17.3 mph N/A   Clear
3:35 PM 82.0 °F - 21.9 °F 11% 29.85 in 10.0 mi West 16.1 mph 20.7 mph N/A   Clear
3:55 PM 81.9 °F - 21.7 °F 11% 29.84 in 10.0 mi West 15.0 mph - N/A   Clear
4:15 PM 81.9 °F - 21.6 °F 11% 29.84 in 10.0 mi NW 6.9 mph - N/A   Clear
4:55 PM 82.2 °F - 20.8 °F 10% 29.83 in 10.0 mi West 8.1 mph - N/A   Clear
5:35 PM 81.9 °F - 20.5 °F 10% 29.83 in 10.0 mi West 9.2 mph 16.1 mph N/A   Clear
5:55 PM 81.7 °F - 20.1 °F 10% 29.83 in 10.0 mi West 10.4 mph - N/A   Clear
6:15 PM 81.7 °F - 19.9 °F 10% 29.83 in 10.0 mi NW 5.8 mph - N/A   Clear
6:35 PM 81.5 °F - 19.8 °F 10% 29.83 in 10.0 mi WSW 6.9 mph - N/A   Clear
6:55 PM 81.1 °F - 19.0 °F 10% 29.83 in 10.0 mi SW 5.8 mph - N/A   Clear
7:15 PM 80.6 °F - 18.7 °F 10% 29.84 in 10.0 mi West 8.1 mph - N/A   Clear
7:35 PM 79.3 °F - 18.7 °F 10% 29.84 in 10.0 mi WSW 4.6 mph - N/A   Clear
7:55 PM 78.3 °F - 18.3 °F 11% 29.85 in 10.0 mi NW 3.5 mph - N/A   Clear
8:15 PM 77.2 °F - 18.0 °F 11% 29.85 in 10.0 mi Calm Calm - N/A   Clear
8:35 PM 74.7 °F - 17.4 °F 12% 29.86 in 10.0 mi South 5.8 mph - N/A   Clear
8:55 PM 69.1 °F - 16.5 °F 13% 29.87 in 10.0 mi South 5.8 mph - N/A   Clear
9:15 PM 67.6 °F - 16.3 °F 14% 29.88 in 10.0 mi SSW 8.1 mph - N/A   Clear
9:35 PM 65.7 °F - 16.2 °F 15% 29.89 in 10.0 mi SW 5.8 mph - N/A   Clear
9:55 PM 64.4 °F - 16.9 °F 16% 29.90 in 10.0 mi WSW 6.9 mph - N/A   Clear
10:15 PM 63.0 °F - 16.2 °F 16% 29.91 in 10.0 mi West 6.9 mph - N/A   Clear
10:35 PM 61.3 °F - 17.1 °F 18% 29.92 in 10.0 mi Calm Calm - N/A   Clear
10:55 PM 63.1 °F - 20.5 °F 19% 29.93 in 10.0 mi ENE 13.8 mph 24.2 mph N/A   Clear
11:15 PM 65.5 °F - 26.6 °F 23% 29.95 in 10.0 mi East 15.0 mph - N/A   Clear
11:35 PM 62.6 °F - 28.4 °F 27% 29.96 in 10.0 mi East 9.2 mph - N/A   Clear
11:55 PM 59.7 °F - 28.9 °F 31% 29.97 in 10.0 mi East 6.9 mph - N/A   Clear